Tracking 33198 objects as of 14-Feb-2026
HD Live streaming from Space Station
objects crossing your sky now

FLOCK 4G 13

Track FLOCK 4G 13 now!
10-day predictions
FLOCK 4G 13 is classified as:


NORAD ID: 62621
Int'l Code: 2025-009N
Perigee: 479.7 km
Apogee: 485.1 km
Inclination: 97.4 °
Period: 94.1 minutes
Semi major axis: 6853 km
RCS: Unknown
Launch date: January 14, 2025
Source: United States (US)
Launch site: AIR FORCE WESTERN TEST RANGE (AFWTR)

Uplink (MHz):
Downlink (MHz): 145.825/436.850
Beacon (MHz):
Mode: 1k2AFSK APRS_Digipeater
Call sign: BN0TIT
Status: Inactive

Your satellite tracking list
Your tracking list is empty




NASA's NSSDC Master Catalog

Two Line Element Set (TLE):
1 62621U 25009N   26044.72549133  .00041702  00000-0  14240-2 0  9990
2 62621  97.4074 127.1392 0003958  33.3048 326.8441 15.30182861 60033
Source of the keplerian elements: AFSPC